When you browse on this site, cookies collect data to enhance your experience and personalize the content and advertising you see.
Visit our Privacy Policy to learn more. By continuing to use the site, you agree to this use of cookies and data.
  • In Hungary
  • List of Countries
  • For 7 days
  • Water Temperature
  • Satellite Maps
  • Weather Map
  • News
  • Weather Widgets
  • user-avatar
    Login

    Hourly Weather Newcastle

    Today, 19 November, Monday

    Time Temperature Precipitation Wind Pressure Humidity
    00:00 +15°C° 0 mm 2 mps 765 mmHg 84%
    01:00 +16°C° 0 mm 2 mps 765 mmHg 82%
    02:00 +15°C° 0 mm 2 mps 765 mmHg 84%
    03:00 +15°C° 0 mm 2 mps 765 mmHg 86%
    04:00 +14°C° 0 mm 1 mps 765 mmHg 87%
    05:00 +16°C° 0 mm 1 mps 765 mmHg 80%
    06:00 +19°C° 0 mm 1 mps 765 mmHg 74%
    07:00 +20°C° 0 mm 1 mps 765 mmHg 67%
    08:00 +21°C° 0 mm 2 mps 765 mmHg 61%
    09:00 +23°C° 0 mm 2 mps 764 mmHg 55%
    10:00 +25°C° 0 mm 2 mps 764 mmHg 50%
    11:00 +25°C° 0 mm 3 mps 764 mmHg 50%
    12:00 +25°C° 0 mm 3 mps 763 mmHg 50%
    13:00 +25°C° 0 mm 4 mps 763 mmHg 50%
    14:00 +25°C° 0 mm 4 mps 763 mmHg 50%
    15:00 +25°C° 0 mm 4 mps 762 mmHg 51%
    16:00 +25°C° 0 mm 4 mps 762 mmHg 51%
    17:00 +22°C° 0 mm 4 mps 762 mmHg 58%
    18:00 +21°C° 0 mm 4 mps 762 mmHg 65%
    19:00 +19°C° 0 mm 3 mps 762 mmHg 72%
    20:00 +18°C° 0 mm 3 mps 762 mmHg 73%
    21:00 +18°C° 0 mm 3 mps 762 mmHg 74%
    22:00 +18°C° 0 mm 3 mps 762 mmHg 75%
    23:00 +17°C° 0 mm 3 mps 762 mmHg 78%

    Tomorrow, 20 November, Tuesday

    Time Temperature Precipitation Wind Pressure Humidity
    00:00 +17°C° 0 mm 3 mps 762 mmHg 81%
    01:00 +16°C° 0 mm 2 mps 762 mmHg 84%
    02:00 +16°C° 0 mm 2 mps 761 mmHg 87%
    03:00 +15°C° 0 mm 2 mps 761 mmHg 90%
    04:00 +14°C° 0 mm 2 mps 761 mmHg 94%
    05:00 +16°C° 0 mm 2 mps 761 mmHg 88%
    06:00 +17°C° 0 mm 2 mps 761 mmHg 82%
    07:00 +18°C° 0 mm 2 mps 761 mmHg 76%
    08:00 +19°C° 0 mm 2 mps 760 mmHg 76%
    09:00 +19°C° 0 mm 2 mps 760 mmHg 76%
    10:00 +19°C° 0 mm 2 mps 760 mmHg 76%
    11:00 +23°C° 0 mm 2 mps 759 mmHg 66%
    12:00 +26°C° 0 mm 3 mps 758 mmHg 55%
    13:00 +29°C° 0 mm 4 mps 757 mmHg 45%
    14:00 +28°C° 0 mm 4 mps 756 mmHg 49%
    15:00 +27°C° 0 mm 5 mps 756 mmHg 52%
    16:00 +27°C° 0 mm 5 mps 755 mmHg 56%
    17:00 +26°C° 0 mm 5 mps 755 mmHg 61%
    18:00 +23°C° 0 mm 5 mps 755 mmHg 67%
    19:00 +22°C° 0 mm 6 mps 755 mmHg 72%
    20:00 +22°C° 0 mm 6 mps 755 mmHg 74%
    21:00 +21°C° 0 mm 6 mps 755 mmHg 77%
    22:00 +21°C° 0 mm 6 mps 754 mmHg 79%
    23:00 +20°C° 0.2 mm 6 mps 754 mmHg 83%

    Day after tomorrow, 21 November, Wednesday

    Time Temperature Precipitation Wind Pressure Humidity
    00:00 +20°C° 0.2 mm 5 mps 753 mmHg 87%
    01:00 +19°C° 0.2 mm 4 mps 752 mmHg 91%
    02:00 +19°C° 0.2 mm 4 mps 752 mmHg 92%
    03:00 +19°C° 0.2 mm 4 mps 752 mmHg 93%
    04:00 +18°C° 0.2 mm 3 mps 751 mmHg 94%
    05:00 +20°C° 0.1 mm 3 mps 752 mmHg 89%
    06:00 +21°C° 0.1 mm 3 mps 752 mmHg 85%
    07:00 +24°C° 0.1 mm 3 mps 752 mmHg 80%
    08:00 +27°C° 0 mm 4 mps 752 mmHg 69%
    09:00 +29°C° 0 mm 4 mps 751 mmHg 58%
    10:00 +33°C° 0 mm 5 mps 751 mmHg 47%
    11:00 +33°C° 0 mm 5 mps 751 mmHg 47%
    12:00 +33°C° 0 mm 4 mps 750 mmHg 46%
    13:00 +33°C° 0 mm 4 mps 750 mmHg 46%
    14:00 +32°C° 0.1 mm 4 mps 749 mmHg 50%
    15:00 +30°C° 0.1 mm 4 mps 749 mmHg 55%
    16:00 +29°C° 0.1 mm 3 mps 749 mmHg 59%
    17:00 +28°C° 0.1 mm 3 mps 749 mmHg 60%
    18:00 +27°C° 0.1 mm 4 mps 749 mmHg 60%
    19:00 +26°C° 0.1 mm 4 mps 749 mmHg 61%
    20:00 +25°C° 0 mm 4 mps 750 mmHg 63%
    21:00 +25°C° 0 mm 5 mps 750 mmHg 65%
    22:00 +23°C° 0 mm 5 mps 750 mmHg 67%
    23:00 +22°C° 0 mm 4 mps 750 mmHg 72%

    22 November, Thursday

    Time Temperature Precipitation Wind Pressure Humidity
    00:00 +21°C° 0 mm 4 mps 749 mmHg 76%
    01:00 +21°C° 0 mm 4 mps 749 mmHg 81%
    02:00 +20°C° 0 mm 4 mps 748 mmHg 83%
    03:00 +20°C° 0 mm 4 mps 748 mmHg 85%
    04:00 +19°C° 0 mm 4 mps 748 mmHg 87%
    05:00 +21°C° 0 mm 4 mps 748 mmHg 76%
    06:00 +22°C° 0 mm 5 mps 748 mmHg 65%
    07:00 +24°C° 0 mm 6 mps 748 mmHg 53%
    08:00 +24°C° 0 mm 6 mps 748 mmHg 45%
    09:00 +26°C° 0 mm 7 mps 748 mmHg 37%
    10:00 +27°C° 0 mm 8 mps 748 mmHg 29%
    11:00 +27°C° 0 mm 8 mps 748 mmHg 25%
    12:00 +27°C° 0 mm 8 mps 748 mmHg 20%
    13:00 +27°C° 0 mm 9 mps 748 mmHg 15%
    14:00 +27°C° 0 mm 9 mps 748 mmHg 16%
    15:00 +26°C° 0 mm 9 mps 748 mmHg 17%
    16:00 +26°C° 0 mm 9 mps 748 mmHg 18%
    17:00 +23°C° 0 mm 8 mps 749 mmHg 22%
    18:00 +21°C° 0 mm 7 mps 750 mmHg 26%
    19:00 +19°C° 0 mm 6 mps 751 mmHg 31%
    20:00 +17°C° 0 mm 7 mps 751 mmHg 33%
    21:00 +16°C° 0 mm 8 mps 752 mmHg 36%
    22:00 +15°C° 0 mm 8 mps 753 mmHg 39%
    23:00 +15°C° 0 mm 8 mps 752 mmHg 43%

    23 November, Friday

    Time Temperature Precipitation Wind Pressure Humidity
    00:00 +15°C° 0 mm 8 mps 752 mmHg 46%
    01:00 +13°C° 0 mm 8 mps 752 mmHg 50%
    02:00 +14°C° 0 mm 7 mps 752 mmHg 51%
    03:00 +13°C° 0 mm 6 mps 752 mmHg 51%
    04:00 +13°C° 0 mm 6 mps 752 mmHg 52%
    05:00 +14°C° 0 mm 6 mps 752 mmHg 48%
    06:00 +16°C° 0 mm 6 mps 753 mmHg 44%
    07:00 +17°C° 0 mm 7 mps 753 mmHg 40%
    08:00 +20°C° 0 mm 7 mps 752 mmHg 35%
    09:00 +22°C° 0 mm 7 mps 752 mmHg 31%
    10:00 +23°C° 0 mm 7 mps 752 mmHg 26%
    11:00 +24°C° 0 mm 8 mps 751 mmHg 25%
    12:00 +26°C° 0 mm 8 mps 750 mmHg 24%
    13:00 +26°C° 0 mm 8 mps 749 mmHg 23%
    14:00 +26°C° 0 mm 8 mps 749 mmHg 22%
    15:00 +24°C° 0 mm 8 mps 749 mmHg 22%
    16:00 +24°C° 0 mm 8 mps 749 mmHg 22%
    17:00 +22°C° 0 mm 8 mps 750 mmHg 25%
    18:00 +20°C° 0 mm 7 mps 750 mmHg 27%
    19:00 +17°C° 0 mm 6 mps 751 mmHg 30%
    20:00 +17°C° 0 mm 7 mps 751 mmHg 30%
    21:00 +17°C° 0 mm 8 mps 751 mmHg 29%
    22:00 +16°C° 0 mm 9 mps 751 mmHg 29%
    23:00 +16°C° 0 mm 10 mps 751 mmHg 30%

    24 November, Saturday

    Time Temperature Precipitation Wind Pressure Humidity
    00:00 +16°C° 0 mm 10 mps 750 mmHg 31%
    01:00 +16°C° 0 mm 10 mps 750 mmHg 32%
    02:00 +16°C° 0 mm 10 mps 750 mmHg 34%
    03:00 +16°C° 0 mm 10 mps 750 mmHg 36%
    04:00 +16°C° 0 mm 10 mps 750 mmHg 38%
    05:00 +16°C° 0 mm 9 mps 750 mmHg 39%
    06:00 +17°C° 0 mm 9 mps 750 mmHg 40%
    07:00 +18°C° 0 mm 9 mps 751 mmHg 40%
    08:00 +21°C° 0 mm 9 mps 750 mmHg 37%
    09:00 +23°C° 0 mm 8 mps 750 mmHg 33%
    10:00 +26°C° 0 mm 8 mps 750 mmHg 29%
    11:00 +27°C° 0 mm 7 mps 750 mmHg 28%
    12:00 +28°C° 0 mm 7 mps 750 mmHg 26%
    13:00 +30°C° 0 mm 6 mps 749 mmHg 25%
    14:00 +29°C° 0 mm 6 mps 749 mmHg 26%
    15:00 +29°C° 0 mm 6 mps 749 mmHg 27%
    16:00 +29°C° 0 mm 5 mps 749 mmHg 29%
    17:00 +27°C° 0 mm 5 mps 750 mmHg 37%
    18:00 +23°C° 0 mm 5 mps 750 mmHg 45%
    19:00 +21°C° 0 mm 4 mps 751 mmHg 53%
    20:00 +20°C° 0 mm 4 mps 751 mmHg 59%
    21:00 +18°C° 0 mm 3 mps 751 mmHg 66%
    22:00 +17°C° 0 mm 2 mps 752 mmHg 72%
    23:00 +17°C° 0 mm 3 mps 751 mmHg 70%
    Show more